Weather History for Paynesville, MN

Change the Weather History Date:

Saturday, October 20, 2012

  Actual Average (KLJF) Record (KLJF)
Temperature  
Mean Temperature 46 °F -  
Max Temperature 50 °F 57 °F 81 °F (1953)
Min Temperature 42 °F 35 °F 19 °F (1952)
Degree Days  
Heating Degree Days 20    
Moisture  
Dew Point 42 °F    
Average Humidity 89    
Maximum Humidity 98    
Minimum Humidity 76    
Precipitation  
Precipitation 0.00 in - - ()
Sea Level Pressure  
Sea Level Pressure 29.76 in    
Wind  
Wind Speed 3 mph (SSE)    
Max Wind Speed 12 mph    
Max Gust Speed 16 mph    
Visibility 9 miles    
Events Fog    
Averages and records for this station are not official NWS values.
T = Trace of Precipitation, MM = Missing Value Source: NWS Daily Summary

Daily Weather History Graph

Daily Weather History Graph

Search for Another Location

Airport:

Trip Planner

Search our weather history database for the weather conditions in past years. The results will help you decide how hot, cold, wet, or windy it might be!

Date:

Astronomy

Oct. 20, 2012 Rise Set
Actual Time 7:42 AM CDT 6:24 PM CDT
Civil Twilight 7:12 AM CDT 6:54 PM CDT
Nautical Twilight 6:37 AM CDT 7:28 PM CDT
Astronomical Twilight 6:03 AM CDT 8:02 PM CDT
Moon 1:27 PM CDT (10/20) 11:03 PM CDT (10/20)
Length of Visible Light 11h 41m
Length of Day
10h 41m
Waxing Crescent, 34% of the Moon is Illuminated
Oct 20
Waxing Crescent
Oct 21
First Quarter
Oct 29
Full
Nov 6
Last Quarter
Nov 13
New

Hourly Weather History & Observations

Time (CDT) Temp. Windchill Dew Point Humidity Pressure Visibility Wind Dir Wind Speed Gust Speed Precip Events Conditions
12:13 AM 43.5 °F - 42.1 °F 95% 29.74 in 10.0 mi Calm Calm - N/A   Overcast
12:34 AM 43.7 °F - 42.1 °F 94% 29.74 in 10.0 mi Calm Calm - N/A   Overcast
12:53 AM 43.7 °F - 42.3 °F 95% 29.74 in 10.0 mi Calm Calm - N/A   Overcast
1:13 AM 43.7 °F - 42.3 °F 95% 29.74 in 10.0 mi Calm Calm - N/A   Overcast
1:34 AM 43.7 °F - 42.4 °F 95% 29.74 in 10.0 mi Calm Calm - N/A   Overcast
1:53 AM 43.7 °F 41.1 °F 42.3 °F 95% 29.74 in 10.0 mi WSW 4.6 mph - N/A   Overcast
2:13 AM 43.3 °F 41.7 °F 42.1 °F 95% 29.74 in 10.0 mi West 3.5 mph - N/A   Overcast
2:33 AM 43.3 °F - 42.3 °F 96% 29.74 in 10.0 mi Calm Calm - N/A   Overcast
2:54 AM 43.2 °F - 41.9 °F 95% 29.75 in 10.0 mi Calm Calm - N/A   Overcast
3:06 AM 43.2 °F 41.5 °F 42.1 °F 96% 29.75 in 10.0 mi West 3.5 mph - N/A   Overcast
3:43 AM 43.2 °F - 41.9 °F 95% 29.75 in 10.0 mi Calm Calm - N/A   Overcast
3:54 AM 43.2 °F - 41.9 °F 95% 29.75 in 10.0 mi Calm Calm - N/A   Overcast
4:13 AM 43.2 °F - 41.9 °F 95% 29.75 in 10.0 mi Calm Calm - N/A   Overcast
4:33 AM 43.2 °F - 42.1 °F 96% 29.75 in 10.0 mi Calm Calm - N/A   Overcast
4:54 AM 43.0 °F - 41.9 °F 96% 29.75 in 10.0 mi Calm Calm - N/A   Overcast
5:13 AM 43.0 °F - 41.9 °F 96% 29.75 in 10.0 mi Calm Calm - N/A   Overcast
5:33 AM 43.2 °F - 41.9 °F 95% 29.76 in 10.0 mi Calm Calm - N/A   Overcast
5:54 AM 43.2 °F - 41.9 °F 95% 29.75 in 10.0 mi Calm Calm - N/A   Overcast
6:13 AM 43.2 °F - 41.9 °F 95% 29.75 in 10.0 mi Calm Calm - N/A   Overcast
6:33 AM 43.3 °F - 42.1 °F 95% 29.76 in 10.0 mi Calm Calm - N/A   Overcast
6:54 AM 43.7 °F - 42.3 °F 95% 29.76 in 7.0 mi Calm Calm - N/A   Overcast
7:14 AM 43.2 °F - 42.4 °F 97% 29.76 in 1.2 mi Calm Calm - N/A   Overcast
7:34 AM 43.0 °F 41.3 °F 42.4 °F 98% 29.76 in 0.5 mi SSW 3.5 mph - N/A Fog Fog
7:53 AM 42.8 °F - 42.3 °F 98% 29.77 in 5.0 mi Calm Calm - N/A   Overcast
8:13 AM 42.8 °F 41.1 °F 42.3 °F 98% 29.78 in 7.0 mi SSW 3.5 mph - N/A   Overcast
8:34 AM 42.8 °F - 42.1 °F 97% 29.78 in 5.0 mi Calm Calm - N/A   Overcast
8:53 AM 42.8 °F 40.1 °F 41.9 °F 97% 29.78 in 4.0 mi South 4.6 mph - N/A   Overcast
9:13 AM 42.8 °F - 41.9 °F 97% 29.78 in 4.0 mi Calm Calm - N/A   Overcast
9:34 AM 43.2 °F - 42.3 °F 97% 29.78 in 4.0 mi Calm Calm - N/A   Overcast
9:54 AM 43.3 °F 39.9 °F 42.1 °F 95% 29.79 in 7.0 mi South 5.8 mph - N/A   Overcast
10:13 AM 43.7 °F 41.1 °F 41.9 °F 93% 29.79 in 7.0 mi SSW 4.6 mph - N/A   Overcast
10:33 AM 44.2 °F 41.0 °F 41.9 °F 91% 29.79 in 7.0 mi South 5.8 mph - N/A   Overcast
10:53 AM 44.8 °F 41.6 °F 42.1 °F 90% 29.79 in 10.0 mi SSW 5.8 mph - N/A   Overcast
11:14 AM 44.8 °F 42.4 °F 41.7 °F 89% 29.78 in 10.0 mi South 4.6 mph - N/A   Overcast
11:33 AM 45.5 °F 41.3 °F 41.7 °F 87% 29.78 in 10.0 mi South 8.1 mph - N/A   Overcast
11:54 AM 46.6 °F - 42.1 °F 84% 29.78 in 10.0 mi SSE 8.1 mph - N/A   Overcast
12:13 PM 46.8 °F - 42.3 °F 84% 29.78 in 10.0 mi SSW 5.8 mph - N/A   Overcast
12:33 PM 47.5 °F - 42.1 °F 82% 29.77 in 10.0 mi SSE 9.2 mph - N/A   Overcast
12:53 PM 47.7 °F - 41.4 °F 79% 29.76 in 10.0 mi SSE 9.2 mph - N/A   Mostly Cloudy
1:14 PM 48.9 °F - 41.7 °F 76% 29.75 in 10.0 mi SE 11.5 mph 16.1 mph N/A   Mostly Cloudy
1:33 PM 49.3 °F - 42.3 °F 77% 29.75 in 10.0 mi SE 11.5 mph - N/A   Overcast
1:53 PM 49.1 °F - 42.3 °F 77% 29.76 in 10.0 mi South 6.9 mph - N/A   Overcast
2:14 PM 48.7 °F - 42.6 °F 79% 29.76 in 10.0 mi SSW 6.9 mph - N/A   Overcast
2:33 PM 48.6 °F - 42.4 °F 79% 29.76 in 10.0 mi South 8.1 mph - N/A   Overcast
2:53 PM 48.9 °F - 42.4 °F 78% 29.75 in 10.0 mi South 9.2 mph - N/A   Overcast
3:14 PM 48.7 °F - 42.8 °F 80% 29.74 in 10.0 mi SSE 8.1 mph - N/A   Overcast
3:33 PM 48.7 °F - 42.6 °F 79% 29.75 in 10.0 mi SE 6.9 mph - N/A   Overcast
3:53 PM 48.9 °F - 42.6 °F 79% 29.74 in 10.0 mi SSE 5.8 mph - N/A   Overcast
4:14 PM 49.1 °F - 42.8 °F 79% 29.74 in 10.0 mi SE 6.9 mph - N/A   Overcast
4:34 PM 49.3 °F - 43.0 °F 79% 29.74 in 10.0 mi SE 6.9 mph - N/A   Overcast
4:53 PM 49.3 °F - 43.0 °F 79% 29.74 in 10.0 mi South 9.2 mph - N/A   Overcast
5:13 PM 49.3 °F - 43.0 °F 79% 29.75 in 10.0 mi South 9.2 mph - N/A   Overcast
5:34 PM 49.1 °F - 42.8 °F 79% 29.76 in 10.0 mi South 6.9 mph - N/A   Overcast
5:53 PM 49.1 °F - 42.3 °F 77% 29.76 in 10.0 mi SSE 8.1 mph - N/A   Overcast
6:13 PM 48.7 °F - 42.1 °F 78% 29.76 in 10.0 mi SSE 6.9 mph - N/A   Overcast
6:34 PM 48.4 °F - 42.6 °F 80% 29.74 in 10.0 mi SE 6.9 mph - N/A   Mostly Cloudy
6:54 PM 47.8 °F - 42.4 °F 82% 29.74 in 10.0 mi SE 6.9 mph - N/A   Scattered Clouds
7:14 PM 47.3 °F - 42.6 °F 84% 29.74 in 10.0 mi SE 5.8 mph - N/A   Clear
7:34 PM 47.3 °F - 42.8 °F 84% 29.75 in 10.0 mi ESE 5.8 mph - N/A   Clear
7:53 PM 46.9 °F - 43.0 °F 86% 29.75 in 10.0 mi ESE 6.9 mph - N/A   Clear
8:13 PM 46.8 °F - 43.3 °F 88% 29.75 in 10.0 mi ESE 5.8 mph - N/A   Clear
8:34 PM 46.8 °F - 43.7 °F 89% 29.76 in 10.0 mi SE 6.9 mph - N/A   Clear
8:53 PM 46.8 °F - 43.7 °F 89% 29.77 in 10.0 mi SE 6.9 mph - N/A   Clear
9:13 PM 46.8 °F - 43.5 °F 88% 29.77 in 10.0 mi SE 9.2 mph - N/A   Clear
9:34 PM 46.4 °F 42.4 °F 43.2 °F 88% 29.77 in 10.0 mi SE 8.1 mph - N/A   Clear
9:53 PM 45.9 °F 41.7 °F 43.0 °F 90% 29.77 in 10.0 mi SE 8.1 mph - N/A   Clear
10:13 PM 45.5 °F 40.3 °F 43.0 °F 91% 29.77 in 10.0 mi SE 10.4 mph - N/A   Clear
10:34 PM 45.5 °F 41.3 °F 43.2 °F 92% 29.77 in 10.0 mi SE 8.1 mph - N/A   Clear
10:53 PM 45.5 °F 41.3 °F 43.3 °F 92% 29.76 in 10.0 mi SE 8.1 mph - N/A   Clear
11:53 PM 45.9 °F 40.8 °F 43.2 °F 90% 29.76 in 10.0 mi SSE 10.4 mph - N/A   Clear